User: anonymous   Login
Location: Mentone
(34.5413°N, 85.5351°W)
Time: 19:37:41
(UTC-06:00)
Language:

Vanguard 2 Rocket - Orbit

View from above orbital plane
View from above orbital plane
View from above satellite
View from above satellite

Ground track
Ground track

The orbit data is extracted from the following two-line orbital elements,

1 00012U 59001B   14327.20366568  .00000358  00000-0  19566-3 0  9593
2 00012 032.9066 262.0013 1671288 190.3834 165.7602 11.43451287289637
Epoch (UTC): 23 November 2014 04:53:16
Eccentricity: 0.1671288
inclination: 32.9066°
perigee height: 553 km
apogee height: 3335 km
right ascension of ascending node: 262.0013°
argument of perigee: 190.3834°
revolutions per day: 11.43451287
mean anomaly at epoch: 165.7602°
orbit number at epoch: 28963

The dashed part of the orbit path shows where the satellite is in the earth's shadow,  

DLR